COSMOS 1275 DEB

Satellite information

Favourite Embed

Satellite Type and Status

DEBRISDECAYED

Key statistics

Satellite COSMOS 1275 DEB at a glance.

Uptime

16257

Days in orbit

Revolutions

≈ 16.0

Per day

Orbit

LEO

Low Earth Orbit

Inclination

82.9

Latest

Satellite identification and parameters

Extended collection of information and parameters for COSMOS 1275 DEB.

Object identification

Identified? True

Debris? True

Object name: COSMOS 1275 DEB

International designator: 1981-053GH

Object number (NORAD): 13487

Object ID (CCSDS): 13487

Country: COMMONWEALTH OF INDEPENDENT STATES (CIS)

Current information (Y/N): Y

RCS size: SMALL

Orbital parameters

Decay date: Dec. 7, 2025

Period: 90.106 minutes

Inclination: 82.8871 deg

SMA: 6657.768 km

Apoapsis: 295.672 km

Periapsis: 263.594 km

RAAN: 306.5256 deg

Eccentricy: 0.00240904

Argument of periapsis: 140.8194 deg

Mean anomaly: 234.7911 deg

Mean motion: 15.98121532 rev/day

Mean motion (dot): 0.10373046 rev/day2

B* drag term: 0.034350087 1/REarth

Two-line elements (TLE)

Creation date: Dec. 7, 2025, 5:20 p.m.

Reference frame: TEME

Reference center: EARTH

Epoch: Dec. 7, 2025, 4:13 a.m. UTC

TLE line 0: 0 COSMOS 1275 DEB

TLE line 1: 1 13487U 81053GH 25341.17589404 .10373046 30595+0 34350-1 0 9994

TLE line 2: 2 13487 82.8871 306.5256 0024090 140.8194 234.7911 15.98121532221311

Live tracking on map

Satellite COSMOS 1275 DEB has decayed and is no longer in orbit. No tracking available.

In-orbit conjunctions

Satellite COSMOS 1275 DEB has decayed and is no longer in orbit. No conjunctions available.

Associated space launch

Navigation satellite providing location information for the Tsiklon-B navigation system

COSMOS 1275 DEB was lifted into orbit during the mission ‘Kosmos-3M | Parus 27’, on board a Kosmos-3M space rocket.

The launch took place on June 4, 1981, 3:41 p.m. from 132/2.

For more information about the launch, click the button.

Launch to space Kosmos-3M | Parus 27
Kosmos-3M | Parus 27

Agency: N/A

Status: Launch Successful

Launch date: June 4, 1981, 3:41 p.m. UTC

Rocket: Kosmos-3M

Launch pad: 132/2

Location: Plesetsk Cosmodrome, Russian Federation

...

Latest news about this satellite

There are no fresh news available about this satellite. Check back as we update our databases every day.


Newsletter sign-up

Weekly statistics, charts and insights to help you stay on top of the space industry.